{"data":{"norad_id":36585,"epoch":"2026-09-19T22:22:12.754848Z","epoch_age_seconds":63509,"freshness":"FRESH","line1":"1 36585U 10022A   26262.93209207 -.00000006  00000+0  00000+0 0  9997","line2":"2 36585  54.2581 204.7474 0115957  55.8469 123.8181  2.00610250119491","mean_motion":2.0061025,"eccentricity":0.0115957,"inclination_deg":54.2581,"raan_deg":204.7474,"arg_perigee_deg":55.8469,"mean_anomaly_deg":123.8181,"bstar":0,"rev_number":11949,"period_min":717.80978289993,"perigee_km":19870.155359365,"apogee_km":20486.031522007,"semimajor_km":26556.230440686,"source":"CELESTRAK","updated_at":"2026-09-20T09:00:46.087220Z"}}